Location: Fort Wayne
(41.1310°N, 85.1290°W)
Time: 05:05:13
(UTC-04:00)

Cosmos 2219 Rocket - Visible Passes

Search period start: 01 November 2014 00:00
Search period end: 10 November 2014 23:00
Orbit: 827 x 849 km, 71.0° (Epoch: 31 October)

Date Brightness Start Highest point End Pass type
(mag) Time Alt. Az. Time Alt. Az. Time Alt. Az.
01 Nov 3.3 19:02:53 10° SW 19:08:16 45° WNW 19:13:42 10° NNE visible
05 Nov 4.9 18:47:01 10° WNW 18:48:20 11° NW 18:49:40 10° NNW visible
06 Nov 4.8 18:30:07 10° WNW 18:31:59 12° NW 18:33:51 10° NNW visible
07 Nov 4.7 18:13:21 10° WNW 18:15:38 12° NW 18:17:55 10° NNW visible
08 Nov 4.7 17:56:40 10° WNW 17:59:17 13° NW 18:01:55 10° NNW visible
